Regional Weather Roundup
Issued by NWS Bismarck, ND

Home | Current Version | Previous Version | Text Only | Print | Product List | Glossary On
Versions: 1 2 3 4 5 6 7 8 9 10 11 12 13 14 15 16 17 18 19 20 21 22 23 24 25 26 27 28 29 30 31 32 33 34 35 36 37 38 39 40 41 42 43 44 45 46 47 48 49 50
000
ASUS43 KBIS 122320
RWRBIS

NWR BROADCAST TEXT
NATIONAL WEATHER SERVICE BISMARCK ND
600 PM CDT SAT JUL 12 2014

NOTE: "FAIR" INDICATES FEW OR NO CLOUDS BELOW 12,000 FEET WITH NO
SIGNIFICANT WEATHER AND/OR OBSTRUCTIONS TO VISIBILITY.


CITY           SKY/WX    TMP DP  RH WIND       PRES   REMARKS
WILLISTON      SUNNY     84  47  27 NW21G28   30.07F
MINOT          SUNNY     80  49  33 W25G31    29.98F
MINOT AFB      NOT AVBL
BISMARCK       MOSUNNY   83  57  41 W18G24    30.02F
DICKINSON      MOSUNNY   80  55  42 NW14      30.08F
GARRISON         N/A     79  54  41 NW16G24   30.03F
HETTINGER ARPT MOSUNNY   79  58  48 W14       30.12F
JAMESTOWN      SUNNY     79  56  45 NW20G29   29.96F
CARRINGTON     FAIR      77  50  38 NW22G28   29.97F
CROSBY         FAIR      75  52  43 NW21G31   30.05R
HARVEY         FAIR      77  50  38 NW20G25   29.98S
HAZEN          FAIR      79  55  44 NW15G21   30.05S
LINTON         FAIR      81  61  50 W9        30.03F
MANDAN         FAIR      77  57  50 NW15G22   30.05S
RUGBY          FAIR      77  55  47 W28G39    29.94R
STANLEY        FAIR      77  52  41 NW16G29   30.04F
TIOGA          FAIR      77  50  38 NW20G26   30.09S
WATFORD CITY   FAIR      77  50  38 NW15G23   30.06F
$$

CITY           SKY/WX    TMP DP  RH WIND       PRES   REMARKS
GRAND FORKS    MOSUNNY   79  54  41 W18G25    29.88F
GRAND FORKS AF NOT AVBL
DEVILS LAKE    SUNNY     79  54  41 W20       29.92S
FARGO          MOSUNNY   81  57  43 W21G28    29.92F
CANDO          FAIR      68  55  64 NW21      29.99R
CAVALIER       TSTM      59  57  94 NW13      29.93R
GRAFTON        MOCLDY    64  55  72 N20G33    29.92R HAZE
GWINNER        PTCLDY    81  61  50 W10       29.97F
LANGDON        TSTM      57  55  94 NW8       29.95S
ROLLA          MOCLDY    61  59  94 NW12      29.99R
WALHALLA         N/A     59  59 100 W3          N/A
$$

CITY           SKY/WX    TMP DP  RH WIND       PRES   REMARKS
ABERDEEN       MOSUNNY   82  59  45 W12G20    30.01F
MOBRIDGE       PTSUNNY   77  64  64 NW8       30.03F
BUFFALO          N/A     82  53  36 NW17      30.08F
RAPID CITY     PTSUNNY   79  64  60 CALM      30.16S
SIDNEY         SUNNY     82  48  30 NW20G26   30.11S
WOLF POINT     SUNNY     86  43  22 N16G28    30.11S
GLENDIVE       MOSUNNY   84  50  30 NW16G23   30.13F
MILES CITY     MOSUNNY   88  46  23 N15G25    30.14S
BAKER          SUNNY     82  49  31 NW22      30.16S
$$

CITY           SKY/WX    TMP DP  RH WIND       PRES   REMARKS
BILLINGS       MOSUNNY   87  48  25 E12       30.20F
GREAT FALLS    SUNNY     87  39  18 VRB3      30.20F
REGINA         SUNNY     72  52  49 N17G26    30.07S
ESTEVAN        MOSUNNY   75  55  50 NW17G24   30.04R
$$



USA.gov is the U.S. government's official web portal to all federal, state and local government web resources and services.